Regional Weather Roundup
Issued by NWS Goodland, KS

Home | Current Version | Previous Version | Text Only | Print | Product List | Glossary On
Versions: 1 2 3 4 5 6 7 8 9 10 11 12 13 14 15 16 17 18 19 20 21 22 23 24 25 26 27 28 29 30 31 32 33 34 35 36 37 38 39 40 41 42 43 44 45 46 47 48 49 50
000
ASUS43 KGLD 202208
RWRGLD

GOODLAND FORECAST AREA HOURLY WEATHER ROUNDUP
NATIONAL WEATHER SERVICE GOODLAND KS
400 PM MDT FRI OCT 20 2017

...OFFICIAL OBSERVATIONS...

CITY           SKY/WX    TMP DP  RH WIND       PRES   REMARKS
GOODLAND KS    SUNNY     78  45  30 S26G37    29.54F
HILL CITY KS   PTSUNNY   78  55  44 S28G48    29.61S
IMPERIAL NEB   SUNNY     77  42  28 S13G22    29.52F
MCCOOK NEB     SUNNY     80  51  36 S26G39    29.52F
AKRON CO       SUNNY     76  31  19 SE13      29.56F
BURLINGTON CO  SUNNY     79  38  22 S17G32    29.57S
LIMON CO       SUNNY     76  26  15 S24G30    29.60S
$$

...UNOFFICIAL OBSERVATIONS...

CITY           SKY/WX    TMP DP  RH WIND       PRES   REMARKS
COLBY KS       SUNNY     77  52  41 S24G32    29.57F
LENORA KS        N/A     81  32  17 S13         N/A
NORTON KS      SUNNY     77  46  33 S26G37    29.58
SHARON SPRINGS   N/A     80  48  32 S20G29      N/A
TRENTON NEB      N/A     81  32  17 SW9         N/A
YUMA CO        FAIR      77  16  10 CALM      29.55S
$$



USA.gov is the U.S. government's official web portal to all federal, state and local government web resources and services.